Theta_e
338 338 339 343 342 342 341 341 339 339 338 338 338 346 346 347 345 344 343 342 342 342 341 342 341 343 347 347 346 346 346 346 345 345 345 345 345 345 345 345 344 344 344 344 344 346 346 345 345 345 345 344 345 345 346 346 347 347 346 346 345 346 346 345 344 343 342 342 343 344 342 345 343 343 344 343 344 343 340 341 340 337 336 338 340
337 338 337 340 342 340 339 339 339 338 339 339 340 345 346 346 345 343 342 342 342 339 339 339 339 342 346 347 346 346 345 345 343 344 343 341 341 342 342 343 343 344 345 344 344 345 344 344 345 345 344 345 345 345 345 345 345 345 344 344 344 344 343 343 342 342 341 341 342 341 342 344 342 343 341 346 344 343 340 340 339 335 334 339 342
339 338 338 339 343 341 339 340 340 340 340 340 340 341 344 346 345 343 342 342 341 339 339 339 340 341 344 347 347 346 345 346 345 342 339 339 338 340 341 341 342 342 342 343 343 344 344 344 345 346 344 343 343 344 345 345 344 343 343 343 343 343 342 342 342 341 341 341 341 340 340 341 341 342 344 344 344 342 339 339 339 338 335 340 339
338 338 339 342 344 344 342 340 340 340 340 341 341 342 346 345 344 343 342 341 341 342 341 341 341 342 343 345 346 346 346 346 345 343 341 340 341 342 341 340 340 340 340 341 341 342 341 343 343 344 343 343 343 344 343 343 343 343 342 342 342 342 342 341 341 340 340 339 338 337 336 335 338 342 343 343 341 340 338 337 338 338 338 338 338
338 339 339 338 338 340 340 339 339 338 338 341 341 341 345 346 346 343 342 342 340 340 340 341 343 344 343 345 346 346 346 345 345 345 345 343 343 343 343 343 342 342 341 342 341 340 340 341 341 342 342 342 343 343 343 342 342 342 341 342 341 340 340 340 339 338 338 337 337 335 333 333 333 339 341 341 340 337 336 336 336 336 336 336 336
338 339 339 338 337 338 341 339 339 338 340 341 341 344 346 346 346 344 342 341 341 341 340 341 341 341 343 345 345 345 345 345 344 344 344 344 343 342 342 342 343 345 345 344 344 343 343 343 343 342 342 342 342 342 341 341 341 341 341 341 340 340 339 338 337 336 335 335 334 331 331 332 333 336 342 341 339 337 336 336 336 336 336 337 336
339 339 339 338 337 339 342 342 341 341 341 340 340 345 346 346 346 346 343 342 342 342 341 341 342 341 341 342 343 343 344 343 342 344 345 345 345 343 342 342 342 342 343 345 344 344 344 343 343 343 343 342 342 341 341 340 340 340 340 340 340 339 338 337 335 334 333 331 328 328 329 331 331 333 339 339 340 337 336 337 337 336 336 334 333
339 339 339 338 337 340 342 341 340 340 340 340 340 341 345 345 344 345 344 342 342 342 341 341 341 341 340 341 342 342 342 342 341 341 343 344 344 344 343 343 343 344 344 343 344 344 343 343 342 342 343 342 341 341 340 340 340 340 340 340 339 338 337 336 334 334 333 328 327 327 327 329 329 330 337 336 336 335 335 335 335 335 332 331 330
338 338 339 338 337 341 342 342 341 340 340 339 340 341 344 345 345 345 344 342 342 342 341 340 339 339 339 340 341 341 340 341 341 340 341 342 342 342 342 342 343 343 343 343 343 344 343 343 343 342 342 342 341 340 340 340 340 340 339 339 337 337 336 334 334 333 330 328 327 327 327 327 328 328 333 335 334 333 331 331 331 332 331 330 333
338 338 339 338 338 340 341 342 341 341 340 340 341 341 343 345 345 345 345 344 342 341 341 340 338 338 338 338 341 342 342 342 341 340 340 341 341 341 341 340 342 342 342 343 343 342 343 342 342 342 342 341 341 340 340 340 339 339 338 337 336 335 334 333 331 330 326 326 327 328 329 332 327 328 331 334 334 333 330 331 329 328 329 328 329
337 339 339 339 338 340 343 343 342 341 341 341 341 341 342 343 344 344 345 344 342 342 341 340 339 338 338 338 339 341 342 341 341 341 341 341 341 340 340 342 342 342 342 342 343 343 342 342 341 342 341 341 340 340 339 339 338 338 337 336 335 334 333 331 329 324 324 323 323 324 329 332 326 327 333 333 332 331 330 328 328 328 328 327 328
337 339 339 339 342 341 342 343 342 341 341 341 341 341 341 343 344 344 344 344 343 341 341 340 338 336 337 336 339 341 340 341 341 341 341 340 340 341 340 340 340 340 341 341 342 342 342 342 341 340 340 340 340 340 339 338 339 337 336 335 335 334 332 330 325 323 323 323 323 323 322 323 324 328 332 332 332 330 329 329 329 328 329 328 328
338 339 339 339 339 339 341 343 342 342 342 342 341 341 341 341 343 343 343 344 343 341 341 340 338 337 336 336 337 340 340 341 340 340 341 340 340 340 341 340 341 341 341 341 341 341 341 341 341 340 339 339 339 338 337 336 336 336 335 335 333 332 330 328 323 322 322 322 322 322 322 322 324 330 331 332 331 330 330 329 328 328 328 327 326
337 338 339 339 339 342 339 341 342 343 342 341 341 341 341 341 343 343 343 344 343 341 341 339 338 337 336 336 336 339 341 340 340 340 339 339 339 339 340 340 340 340 340 340 340 340 341 340 340 339 339 338 338 336 335 336 337 337 336 333 332 331 328 326 325 321 320 320 321 321 321 323 324 329 330 330 330 330 328 327 327 327 327 326 326
337 338 339 339 340 339 341 339 340 341 341 342 341 341 340 340 341 342 342 342 342 342 340 339 338 337 336 336 339 339 338 338 338 338 338 338 338 338 339 339 339 339 339 340 340 340 339 340 339 339 338 337 336 335 335 335 336 336 335 332 331 329 326 322 321 320 320 321 320 320 320 321 328 328 330 330 330 328 327 326 327 326 325 325 326
338 338 339 339 339 339 339 341 337 338 339 341 341 341 341 341 341 341 341 342 342 342 341 339 338 337 339 340 339 340 338 338 338 338 339 338 337 338 338 339 339 339 339 339 339 339 338 339 338 338 337 336 335 335 334 334 334 334 334 332 329 327 324 322 319 318 318 319 320 320 319 323 329 329 329 328 328 327 326 324 326 325 326 325 325
338 339 339 338 338 338 338 338 335 334 335 337 337 338 339 341 341 341 342 342 341 341 340 339 340 340 339 339 340 341 340 339 339 338 338 337 336 336 336 337 337 337 338 338 339 338 338 338 337 337 336 335 334 334 334 334 334 332 330 329 327 326 324 322 319 318 319 320 320 319 320 321 326 328 327 326 327 326 324 325 328 326 325 324 323
338 339 338 338 338 338 338 337 335 336 335 334 333 335 338 340 340 340 341 341 341 341 340 339 338 337 336 337 338 339 340 339 339 339 338 337 336 337 336 336 337 337 337 337 338 337 338 337 337 335 335 334 333 334 334 333 332 332 331 329 327 325 323 321 319 319 319 321 318 320 319 329 328 326 326 330 327 323 326 328 327 325 323 324 325
337 337 338 338 337 338 338 336 335 335 334 333 333 334 334 335 337 337 338 340 339 337 336 335 333 332 333 333 334 334 334 334 334 334 334 333 333 331 334 336 337 337 337 337 337 337 336 336 336 335 333 333 332 333 333 333 332 331 330 327 325 323 321 319 317 317 317 318 318 318 320 326 325 326 325 327 326 324 328 327 325 324 324 323 324
336 336 337 337 337 337 337 336 336 335 334 333 332 331 331 332 334 335 335 335 335 333 332 331 327 326 327 328 328 328 328 327 328 329 330 332 331 329 332 336 335 336 336 336 336 336 336 336 335 334 333 332 331 331 331 331 331 330 328 326 323 320 318 316 316 317 317 319 320 319 328 330 327 324 328 328 326 324 324 324 324 322 322 322 320
336 337 336 336 336 337 337 336 336 335 334 334 333 331 330 329 329 329 329 330 331 330 328 324 321 321 322 323 325 326 325 326 325 325 324 325 323 326 330 334 335 334 334 335 335 335 335 334 333 332 331 328 327 327 325 328 328 328 326 323 320 319 318 318 317 317 316 318 320 321 329 328 324 325 327 328 326 323 322 323 322 322 323 323 321
331 334 336 337 336 337 337 337 336 335 335 335 334 332 330 329 327 327 326 326 326 324 324 324 326 320 321 323 324 325 325 325 325 328 324 325 324 323 326 330 333 333 333 334 334 333 333 333 332 331 329 329 325 317 316 320 323 325 322 319 318 318 318 317 316 316 316 317 318 325 327 325 325 325 324 327 324 321 321 322 322 323 322 321 319
329 331 333 336 337 337 337 336 336 336 335 335 334 331 330 328 327 326 326 325 326 325 325 324 322 321 320 321 321 321 324 325 325 325 323 321 323 323 325 328 330 330 330 331 331 330 330 330 330 330 329 326 317 316 316 315 315 318 318 318 317 319 318 316 316 316 316 315 316 327 329 326 325 323 323 325 324 322 321 322 321 321 320 320 319
330 330 331 335 337 337 337 337 337 338 336 334 333 331 330 329 328 327 325 325 325 326 325 324 324 323 322 322 321 324 324 323 325 325 324 321 321 321 322 323 324 324 324 325 327 328 328 328 327 327 322 318 316 317 316 316 315 315 315 320 319 317 318 317 315 316 316 317 316 325 329 325 324 323 323 324 324 321 321 320 320 319 319 319 319
330 330 330 332 335 337 337 337 338 338 337 334 332 331 331 330 328 327 326 325 325 326 326 326 324 323 322 322 323 324 324 323 323 322 321 320 319 320 320 320 320 318 319 317 317 318 317 314 317 316 315 316 317 317 317 317 316 316 316 319 319 316 316 317 315 315 315 314 315 322 324 325 323 323 322 323 324 321 320 320 319 319 317 319 318
328 329 330 330 332 336 336 337 338 337 337 334 332 331 331 329 328 328 327 326 326 326 326 326 326 323 322 322 323 324 324 323 322 322 321 321 320 319 319 319 317 317 317 317 314 313 313 313 313 315 315 315 317 317 318 316 316 316 316 317 318 315 316 315 314 314 315 314 315 321 324 325 323 323 323 321 323 320 318 320 319 318 317 316 317
327 328 329 330 332 333 333 336 337 337 336 335 333 331 332 331 329 328 327 326 326 326 325 326 326 324 323 321 322 322 323 322 322 321 321 321 321 319 319 319 319 318 318 316 314 314 314 314 313 315 314 315 315 317 317 317 316 315 314 315 316 315 313 315 314 313 313 314 316 320 323 325 323 322 321 321 320 322 318 320 319 319 318 316 315
326 328 329 330 330 332 333 335 336 336 336 336 334 331 333 332 330 327 328 326 326 326 326 326 326 325 323 321 320 321 322 321 321 320 321 321 320 321 321 319 319 317 319 317 315 313 313 313 314 314 314 313 314 314 314 313 312 313 313 313 311 313 312 313 314 313 314 315 316 317 320 321 326 323 322 322 320 323 320 318 319 317 317 316 316
326 327 328 329 330 332 333 333 335 336 336 336 334 333 334 333 330 328 328 326 327 327 327 326 326 324 323 322 320 319 319 321 320 320 320 320 319 320 319 319 318 316 316 315 315 315 314 313 315 313 311 313 313 314 312 313 311 311 311 311 311 311 310 311 313 312 313 314 315 315 318 319 323 326 323 322 321 320 321 319 320 318 317 317 317
327 328 328 329 331 332 333 333 332 335 335 335 334 333 333 332 330 329 329 326 328 328 327 327 327 325 323 322 322 320 320 320 320 318 319 319 317 317 318 319 317 315 315 316 314 314 314 311 311 311 313 313 313 313 313 313 310 308 309 309 308 309 308 309 310 311 313 313 315 315 316 318 321 324 324 324 322 322 322 320 319 319 317 316 315
327 327 328 328 330 331 332 333 332 331 334 334 334 333 333 332 330 329 328 327 328 328 327 328 328 326 325 323 322 321 320 320 320 319 318 316 316 317 317 316 314 315 316 316 315 315 313 313 313 312 311 311 312 313 313 311 307 307 306 306 306 306 307 307 309 309 311 311 314 314 315 316 319 321 323 324 322 324 323 321 319 320 318 318 317
326 327 328 328 330 331 332 333 334 332 332 332 332 333 333 332 330 330 328 328 327 326 326 327 327 327 325 325 324 323 321 319 319 319 319 317 316 316 315 315 316 313 315 314 315 315 315 314 313 313 312 312 312 312 311 311 306 307 305 306 304 304 303 305 309 309 308 308 312 313 313 314 315 318 320 323 324 324 324 322 320 321 320 320 319
327 328 329 328 329 330 332 333 335 332 333 333 331 333 333 332 331 330 329 329 328 327 326 326 327 328 327 325 324 324 322 321 318 319 317 317 317 317 315 315 316 316 315 314 314 314 312 311 312 312 311 310 310 310 309 307 307 304 305 303 304 304 302 303 306 309 309 307 308 312 313 313 312 314 316 318 322 325 323 322 321 321 321 319 319
326 328 328 328 329 331 332 333 333 333 332 333 332 333 333 333 332 331 329 329 328 327 326 326 326 327 326 325 325 324 323 321 319 318 317 317 317 317 317 315 315 314 314 314 313 312 311 310 310 311 310 308 308 308 308 305 304 303 302 300 300 300 300 302 303 305 307 308 305 305 308 312 314 315 315 314 317 320 323 324 323 321 322 321 319
324 326 327 329 328 331 332 332 330 332 331 331 331 333 333 333 332 331 330 329 328 328 327 326 326 326 325 325 324 324 324 322 320 319 317 316 316 315 315 316 316 314 313 313 314 313 312 311 308 311 307 307 306 306 309 306 304 304 301 300 300 300 301 301 301 302 304 304 305 306 307 307 311 314 315 314 312 315 320 324 323 325 324 322 321
325 326 327 328 328 330 330 331 329 331 331 331 331 333 333 333 332 328 331 329 328 328 327 327 327 326 325 325 324 324 324 323 321 320 318 317 316 315 315 315 314 314 313 312 313 313 311 310 309 311 308 307 306 306 305 307 303 302 300 300 298 299 299 299 300 301 301 302 304 305 306 307 307 306 309 312 313 313 315 318 321 321 322 323 322
327 325 326 327 327 328 328 330 329 330 331 331 330 330 331 332 332 332 331 330 329 328 328 326 326 326 325 325 325 325 324 324 322 320 319 318 316 316 315 315 314 313 312 311 312 312 311 311 308 309 310 308 308 307 306 306 303 300 298 300 299 299 299 299 299 299 299 300 302 303 304 305 304 304 305 305 306 309 312 314 317 320 320 323 322
327 326 326 327 327 327 328 329 330 330 331 331 330 329 330 330 332 332 330 330 329 329 329 327 327 326 325 325 325 325 324 324 323 321 320 319 318 316 315 315 314 313 311 311 311 311 311 311 309 308 310 309 307 308 308 304 302 299 297 299 299 299 299 298 298 297 298 299 300 300 302 302 302 303 302 303 304 304 305 309 312 314 314 316 320
327 327 326 327 327 327 326 326 328 328 330 330 329 329 328 329 330 330 330 330 330 329 329 328 327 327 326 325 326 326 324 325 324 322 320 319 318 316 315 314 314 312 311 311 311 310 309 310 311 309 309 309 310 310 309 304 302 300 299 299 299 298 298 297 297 297 297 298 299 299 298 299 301 302 302 302 302 302 303 304 307 309 310 312 317
326 326 325 326 326 326 326 326 327 328 328 329 328 327 326 326 326 325 327 329 330 328 328 328 326 326 326 325 326 326 325 325 324 323 321 319 318 316 315 314 312 312 311 310 310 310 310 309 309 309 306 304 305 305 305 303 300 299 296 296 296 295 296 297 297 298 297 297 297 297 298 299 299 300 300 301 300 301 301 302 303 306 308 310 312
324 325 325 325 325 326 325 325 327 328 326 327 327 327 325 323 322 325 325 327 328 328 327 327 327 326 325 325 325 325 325 324 324 323 322 319 319 317 316 313 312 312 311 312 312 311 309 309 307 306 307 305 304 302 302 303 302 302 299 299 300 299 297 296 296 296 296 297 296 296 297 297 298 298 299 299 300 301 301 301 302 302 303 305 308
322 323 324 325 325 325 325 326 326 327 327 328 327 327 327 326 325 325 323 325 327 327 327 327 327 325 325 325 324 324 325 324 322 323 322 321 319 317 316 314 312 311 311 309 308 306 306 305 306 304 306 307 305 303 302 304 301 302 302 301 299 298 297 296 295 296 296 296 296 295 295 296 297 297 297 298 300 300 300 301 301 301 301 302 304
322 323 324 324 324 324 326 326 326 327 327 326 327 326 326 325 325 321 323 317 323 328 329 328 324 325 325 325 323 324 324 324 323 322 323 321 320 318 316 314 312 310 308 307 307 305 306 306 306 306 302 302 303 301 302 305 303 300 301 300 299 298 297 294 295 294 296 296 295 294 295 295 296 296 296 296 298 299 300 300 300 300 301 301 302
320 322 323 324 325 324 325 326 326 326 326 326 324 326 325 323 323 321 320 321 319 322 325 326 326 325 325 325 324 323 323 323 322 322 323 323 322 321 318 314 311 310 310 308 306 307 306 305 306 307 307 304 302 301 300 302 305 303 300 300 297 295 296 300 297 297 295 296 295 295 294 295 295 294 294 295 296 296 297 298 299 299 300 301 301
320 321 322 323 325 324 325 325 326 326 326 324 323 324 322 319 319 316 317 318 317 317 322 324 327 327 326 326 326 326 326 324 324 323 322 324 324 323 319 316 312 310 310 310 309 308 308 307 307 307 307 308 304 299 299 301 303 307 306 297 295 294 296 296 296 299 293 292 293 295 294 295 295 294 293 294 295 295 296 297 297 298 298 299 300
319 321 323 324 325 325 324 324 325 325 325 324 324 323 323 323 320 320 319 319 320 319 319 322 324 324 326 328 327 328 328 327 326 325 324 323 324 323 321 317 314 312 311 311 311 309 308 307 308 308 307 308 309 304 301 300 302 304 306 308 307 304 299 296 299 297 296 295 295 293 295 295 295 294 293 294 294 295 295 295 296 296 297 297 299
318 319 320 322 323 324 324 324 324 324 324 323 322 321 323 323 322 323 322 321 321 321 322 318 323 325 325 325 327 328 328 327 325 326 325 324 324 323 322 320 317 315 312 312 312 311 310 310 309 308 308 307 307 306 306 302 299 300 301 303 304 303 300 300 299 297 297 296 294 293 295 295 295 294 294 294 294 294 295 295 295 295 295 296 297
316 317 318 319 320 321 322 322 323 322 323 323 321 322 323 322 322 322 321 321 321 320 320 317 317 320 322 323 325 326 327 326 326 325 325 324 322 323 322 321 318 317 313 313 313 313 312 311 309 309 309 308 307 306 306 305 302 301 299 300 301 302 302 300 300 299 298 295 298 296 294 294 293 293 294 295 295 295 295 295 295 295 294 295 296
314 315 316 317 318 319 319 320 321 320 320 321 321 320 321 322 321 321 319 319 320 318 314 315 315 316 321 322 324 325 325 325 326 325 325 325 321 322 322 321 320 318 313 314 314 313 312 311 308 306 307 307 307 307 307 307 304 306 299 298 299 300 300 300 299 296 295 293 296 297 299 292 291 292 293 294 295 295 295 295 295 295 294 294 295
311 312 313 315 316 316 316 318 319 319 319 319 320 320 319 318 319 318 318 316 313 312 312 314 314 314 317 318 322 323 323 323 324 324 324 322 320 320 321 321 320 320 314 314 313 313 312 312 311 309 308 308 308 307 307 308 307 306 304 301 298 296 297 297 296 294 293 295 293 296 298 297 296 298 294 292 293 294 293 294 294 295 295 295 295
303 306 308 311 313 314 315 316 318 318 317 318 319 319 319 318 320 318 318 316 313 313 312 312 313 312 315 316 319 320 320 322 322 321 321 322 322 320 320 321 320 316 314 314 313 313 312 312 311 310 308 308 308 307 306 306 307 305 304 303 302 301 300 298 297 295 295 292 290 292 294 295 296 296 297 293 293 293 292 292 292 292 293 294 295
Wind_Speed
3 5 3 9 11 12 11 10 11 12 12 12 12 15 14 14 15 14 14 13 14 17 16 15 15 17 20 19 19 19 19 19 20 20 19 19 19 19 19 20 19 19 18 18 18 19 19 20 20 21 23 23 22 21 21 22 23 22 22 22 22 22 23 23 22 23 23 24 24 23 20 22 23 20 22 22 23 22 19 20 17 12 10 15 21
7 4 4 5 11 12 12 12 13 12 11 12 13 14 13 13 14 14 13 13 15 16 16 16 15 16 17 17 19 19 19 18 18 18 18 18 18 19 19 19 19 19 19 20 19 19 19 19 20 21 21 20 21 21 21 22 22 21 22 23 23 23 22 22 22 22 21 21 22 24 24 24 23 21 19 22 24 23 19 20 18 11 9 20 22
7 5 3 6 10 11 11 10 12 12 11 11 11 12 13 13 13 14 12 13 16 16 15 15 15 15 18 19 18 18 19 18 18 18 18 17 19 19 19 18 19 19 19 19 19 19 19 19 20 21 20 20 21 22 22 21 21 21 22 22 22 22 22 22 22 21 20 20 19 17 17 20 23 19 22 24 24 23 20 21 21 17 13 23 20
8 5 4 7 9 10 11 11 12 13 14 12 11 13 13 13 14 13 13 13 16 16 15 15 15 16 16 17 18 18 19 19 18 17 18 18 19 18 18 19 20 20 19 19 19 20 19 20 20 20 21 21 21 21 21 21 22 22 22 22 22 22 22 21 21 20 19 18 17 14 9 8 13 21 22 22 23 22 19 20 20 21 22 21 22
8 5 5 5 5 9 12 12 12 12 12 11 10 10 13 13 13 13 13 16 16 15 16 16 16 16 16 17 17 17 18 19 19 18 18 18 19 19 19 19 19 18 20 20 20 20 20 20 20 21 21 20 19 19 20 21 21 21 22 22 22 22 21 20 20 19 18 18 15 12 8 8 8 20 21 22 22 19 19 20 19 19 20 20 20
8 6 5 5 4 6 11 12 12 12 11 10 9 12 14 13 11 12 13 14 15 15 15 16 16 15 17 18 18 18 18 18 19 19 19 18 17 18 18 19 19 20 20 21 20 20 20 20 20 20 20 20 18 19 20 21 21 21 21 21 20 20 19 19 19 19 18 17 15 8 8 7 7 11 23 22 21 19 20 20 19 19 19 21 21
10 6 5 5 4 6 9 11 12 12 12 11 12 15 13 12 12 11 13 14 15 15 15 15 15 15 15 16 17 17 18 18 18 19 18 18 17 18 17 17 18 18 19 19 19 19 19 20 19 19 20 19 18 19 19 20 20 20 20 20 20 20 20 19 19 18 15 9 7 7 7 9 8 7 21 20 20 20 20 19 19 19 18 18 17
7 6 5 4 4 6 10 11 12 13 13 11 12 14 15 13 11 10 10 12 15 15 15 15 15 14 15 16 16 17 17 16 17 18 18 17 18 17 18 17 17 18 18 18 19 19 18 19 19 19 18 17 17 18 18 19 20 20 21 20 20 20 20 19 18 16 14 8 7 7 7 8 8 7 18 20 20 19 19 18 17 18 18 17 10
9 8 6 5 4 9 9 10 12 13 12 12 13 12 13 13 11 10 9 11 14 15 15 14 13 14 14 16 16 16 16 16 17 17 17 17 17 16 16 16 16 17 17 17 18 18 18 18 18 18 18 17 17 18 18 19 20 20 20 20 20 20 19 17 15 13 9 7 7 7 8 8 8 8 16 19 19 19 18 14 13 16 16 16 19
9 8 6 5 5 9 9 10 12 13 12 12 12 11 13 13 12 12 12 10 12 14 14 15 14 14 14 14 15 16 16 16 16 16 16 16 16 16 16 16 17 16 16 17 17 17 17 17 17 17 17 16 16 17 17 18 19 20 20 19 19 18 16 15 14 9 7 6 6 7 8 9 6 7 15 18 19 19 17 14 13 11 11 16 17
10 8 7 5 6 9 10 11 11 11 12 12 12 11 12 13 12 13 12 10 12 14 15 15 14 14 14 14 15 15 15 15 15 15 15 16 15 16 16 16 16 16 16 17 17 17 17 17 17 16 17 15 15 15 17 18 19 19 19 19 18 18 16 14 10 7 8 8 7 6 8 11 5 7 17 18 19 18 15 16 15 14 15 16 16
9 8 7 5 8 9 10 10 11 12 11 12 12 11 12 13 12 12 12 11 10 14 14 15 15 14 13 14 14 15 14 15 15 14 14 14 16 15 15 15 15 15 16 16 16 17 16 17 16 15 14 14 14 15 15 15 15 16 17 18 17 15 14 12 7 7 7 8 7 6 6 6 6 11 17 17 17 17 16 16 16 16 15 16 16
10 8 7 6 5 9 10 10 10 11 11 12 12 12 11 12 13 13 13 12 11 14 14 14 14 14 13 13 14 14 14 14 14 14 15 15 14 14 14 15 15 15 15 16 16 15 16 16 15 14 13 13 14 14 14 13 13 12 13 15 16 16 14 12 7 7 6 6 5 5 5 5 6 15 15 16 16 16 16 15 16 16 16 15 16
9 8 7 6 5 9 10 9 9 10 11 12 12 11 10 13 13 12 12 12 13 14 14 14 14 14 13 12 12 14 15 14 14 14 14 14 14 14 15 14 14 14 14 15 15 15 15 15 14 13 12 12 13 13 13 13 13 13 14 16 15 13 13 10 8 5 5 5 4 4 3 3 6 16 15 16 15 15 15 15 15 16 15 14 14
11 9 8 6 6 5 10 9 9 9 10 11 11 10 11 11 13 12 12 13 13 13 13 13 13 13 12 12 13 12 13 13 13 13 13 13 13 13 13 13 13 13 14 14 14 14 15 15 14 13 11 11 12 12 13 14 14 13 14 14 13 12 11 6 6 4 5 4 3 4 6 5 14 14 15 15 15 16 15 14 15 15 14 14 16
12 10 8 6 5 5 5 8 9 9 9 10 9 9 9 9 9 12 12 12 12 13 12 12 13 12 13 13 12 12 12 13 13 13 12 12 13 13 13 14 14 13 13 14 14 14 14 14 14 12 11 11 11 11 13 13 13 13 11 11 12 13 11 7 6 5 5 5 4 4 4 6 14 14 15 14 15 13 14 10 14 15 15 15 15
10 10 9 7 6 5 5 5 6 10 9 10 10 9 9 9 9 10 11 11 12 12 12 12 12 12 12 12 11 11 13 14 14 13 12 12 12 11 11 13 13 13 13 14 14 13 13 14 13 12 10 11 10 11 11 12 12 13 13 13 12 12 11 8 6 5 6 5 4 5 6 4 10 15 13 11 15 16 10 13 19 15 13 12 13
11 10 9 8 6 5 5 5 6 6 5 7 9 9 9 10 9 8 8 10 11 10 10 11 11 11 9 9 10 11 12 13 12 11 10 11 10 10 10 11 12 13 13 13 13 13 14 14 13 11 10 10 9 10 11 11 11 10 10 10 9 10 10 9 6 5 5 4 4 1 0 5 16 12 11 17 14 11 14 18 15 14 13 13 14
10 10 9 9 7 6 5 5 4 4 5 5 4 7 10 10 10 9 9 10 10 10 11 11 11 11 11 11 10 11 11 12 11 11 11 11 10 8 9 11 13 13 12 12 13 13 14 14 13 11 9 8 8 8 9 9 9 8 9 9 8 10 10 7 5 5 4 4 4 3 3 14 9 12 9 12 13 11 16 14 13 12 12 12 12
9 9 9 8 7 7 5 5 4 5 4 4 5 5 8 10 9 9 9 10 10 10 10 10 10 10 11 11 11 9 9 9 11 8 11 10 9 7 10 10 11 12 12 12 12 13 13 13 12 10 9 8 7 7 7 8 8 8 9 9 10 10 7 5 4 4 5 4 3 3 7 6 13 8 14 15 11 10 11 12 11 11 10 10 10
6 9 8 8 8 8 8 6 5 5 5 5 4 5 6 10 8 9 9 9 9 9 9 9 9 9 9 10 9 7 6 6 7 6 8 7 9 10 11 11 9 10 11 12 12 12 12 11 10 10 9 7 6 6 6 6 7 8 8 8 8 7 6 6 6 4 3 4 4 4 6 7 9 8 13 13 12 10 10 10 10 11 12 11 10
6 8 8 9 8 8 9 8 6 7 6 5 4 4 5 6 6 5 5 6 7 7 6 4 5 4 8 7 6 5 5 5 6 6 5 6 8 10 10 11 11 11 11 13 13 12 11 10 9 9 9 6 5 3 3 4 5 6 6 5 4 5 6 6 5 5 4 3 1 4 7 8 7 11 9 12 10 9 8 9 10 11 10 9 8
6 7 6 9 9 8 8 8 8 7 7 6 5 5 5 5 5 5 5 5 5 5 4 4 4 3 3 3 3 4 5 5 5 6 5 7 8 10 10 10 11 10 10 11 11 10 9 9 7 6 5 4 2 2 2 2 3 6 5 3 4 5 5 6 5 5 4 2 2 4 7 13 12 9 7 9 10 7 10 10 8 8 9 8 9
7 6 7 7 9 8 9 9 9 9 8 6 6 6 5 5 5 5 5 5 5 5 4 4 4 4 3 2 4 4 5 5 7 11 8 5 6 9 10 10 10 9 10 7 7 8 7 6 4 4 3 2 1 1 1 2 2 1 3 2 3 4 5 5 6 5 5 3 2 2 6 6 8 8 7 9 10 7 7 7 9 7 7 8 9
6 6 6 7 9 9 8 8 9 8 9 7 7 6 6 5 5 5 6 6 5 5 5 4 4 4 3 4 4 5 6 6 5 5 5 5 4 4 4 4 4 4 5 4 4 3 4 2 0 1 0 1 0 1 1 2 3 2 2 1 2 3 4 4 5 5 4 3 2 0 4 3 7 7 7 7 11 7 7 7 7 8 3 8 7
6 7 7 6 8 9 8 8 9 9 9 8 8 7 7 6 6 6 6 5 6 5 5 5 5 3 3 5 5 7 6 6 5 5 5 5 5 4 4 4 3 4 3 3 3 3 3 3 2 2 2 1 2 2 3 2 3 4 2 2 3 2 3 4 5 5 5 4 2 2 4 4 3 5 8 3 10 7 3 8 6 5 4 2 4
8 7 7 5 6 8 8 9 9 8 9 8 7 7 7 7 6 6 6 6 6 6 5 5 6 4 4 5 6 6 6 6 6 6 5 5 5 4 5 4 4 4 4 4 2 3 3 3 3 3 2 1 2 2 2 1 1 2 2 1 3 3 2 5 5 5 3 3 4 5 4 2 1 6 4 5 4 8 1 7 5 6 7 5 2
7 8 7 6 7 8 8 10 9 9 8 8 8 8 6 7 7 7 6 7 7 6 6 6 6 6 5 4 6 6 6 6 6 5 6 5 5 5 5 5 4 5 5 5 4 3 3 2 3 2 2 2 3 1 1 2 2 1 2 1 2 3 3 0 4 4 4 4 5 5 1 1 2 8 6 6 4 10 6 4 5 2 3 1 4
9 9 8 8 7 8 8 9 10 10 9 8 8 8 7 8 7 7 7 7 6 6 6 6 5 5 6 4 4 6 5 6 6 6 5 6 5 6 5 6 5 4 5 5 5 4 4 4 3 3 2 3 1 1 1 1 2 2 2 2 1 2 2 2 2 3 4 5 5 5 4 3 2 6 5 6 7 6 8 5 6 4 4 6 7
10 9 9 8 7 8 9 9 10 10 9 9 7 7 7 8 8 8 7 7 6 6 6 6 6 6 6 5 5 5 6 6 6 5 7 7 5 5 6 6 6 4 5 6 5 5 5 3 3 3 4 2 1 1 1 1 2 2 1 3 2 1 2 2 2 3 4 4 5 5 5 2 2 3 4 8 7 7 9 7 5 7 5 5 1
10 11 10 9 8 9 9 9 9 8 8 9 8 7 7 7 7 7 6 7 7 6 6 7 6 6 6 6 5 5 6 6 6 5 4 5 5 5 6 7 5 5 6 6 5 5 4 4 4 5 3 2 2 2 1 2 2 3 2 3 1 1 1 2 2 1 2 3 4 5 4 5 5 4 3 5 9 10 11 8 7 8 7 7 7
12 12 10 8 9 11 10 10 10 8 9 8 8 8 8 8 7 6 6 6 6 6 6 6 7 6 5 6 6 6 5 6 6 6 5 4 4 5 5 5 5 5 6 6 5 5 5 4 4 4 4 3 3 3 3 3 3 3 3 2 1 1 1 2 2 2 0 2 4 5 4 5 7 8 7 6 8 9 14 11 9 10 10 10 10
9 11 11 9 11 11 11 11 10 9 9 9 8 8 8 8 8 7 6 6 6 6 6 6 7 6 6 7 7 6 5 6 6 7 6 6 5 5 4 4 5 6 5 5 6 4 4 4 4 2 2 2 3 3 2 2 4 3 3 2 2 0 1 1 1 2 2 2 2 5 5 4 4 7 8 7 6 7 9 11 11 10 11 9 10
8 8 10 11 9 8 8 8 11 10 10 9 8 8 8 8 8 7 7 7 6 6 6 6 6 6 7 7 7 6 6 5 6 5 6 6 6 6 6 5 5 4 4 5 6 5 5 4 4 4 3 3 3 3 3 3 2 2 3 2 2 1 0 1 1 2 2 1 2 2 3 3 4 4 5 7 8 7 7 8 11 13 16 13 12
8 8 12 12 10 10 8 8 10 11 9 9 9 9 8 8 8 7 7 7 7 7 6 6 6 6 5 6 7 7 7 6 6 7 6 7 7 6 6 6 5 4 5 5 6 5 5 5 4 5 3 3 3 3 4 4 4 4 3 2 3 1 1 2 1 2 2 2 3 2 2 3 3 4 5 5 7 9 8 9 9 12 15 15 14
10 10 10 11 11 10 10 9 9 12 11 10 8 8 8 8 8 8 7 7 7 7 7 7 7 6 6 6 7 7 7 7 6 7 7 7 7 7 7 6 5 5 6 5 5 6 5 4 4 5 4 4 3 3 3 5 3 4 2 3 2 1 2 1 2 3 2 2 3 3 3 3 2 3 4 4 5 5 9 10 9 10 10 14 18
10 9 11 10 11 11 12 12 12 12 12 11 8 7 7 8 9 9 8 8 8 7 6 6 7 7 7 7 7 8 7 7 7 7 7 7 7 7 6 7 6 6 6 6 6 6 5 5 4 4 5 5 5 4 4 4 4 3 2 3 2 2 3 3 3 3 2 3 3 3 4 4 3 3 2 3 3 4 7 11 11 10 10 10 15
11 11 11 13 13 12 12 12 11 11 10 11 10 8 7 8 8 8 9 9 9 8 7 7 7 7 7 7 7 8 8 7 7 7 7 7 7 7 6 7 6 6 6 6 6 5 5 6 6 4 5 5 5 6 5 4 3 3 3 3 3 2 3 3 4 3 3 5 5 5 5 4 4 4 4 3 2 3 4 7 10 12 11 11 11
10 12 10 10 10 10 10 11 11 11 10 10 10 8 7 6 7 8 8 9 8 8 8 7 7 8 8 8 8 8 8 8 8 7 7 7 6 6 6 6 6 6 6 6 5 5 5 5 6 5 3 3 6 6 6 5 4 3 4 4 3 4 4 4 4 4 4 5 6 6 4 6 5 5 5 4 3 2 4 4 5 5 7 11 11
11 11 11 10 10 10 9 9 10 11 9 9 8 8 7 8 8 6 8 9 9 9 8 8 6 8 8 8 8 8 8 8 8 8 7 7 7 7 7 6 6 6 7 7 6 7 8 6 6 6 4 1 2 2 4 4 2 1 3 3 4 4 4 5 5 6 5 6 7 5 6 5 5 6 5 5 4 4 4 4 4 5 5 7 11
10 11 11 10 11 12 11 13 11 10 9 10 9 10 10 8 7 9 9 8 9 9 9 8 7 7 7 7 7 8 8 8 8 7 8 7 7 6 6 6 7 7 8 9 9 8 6 6 6 4 6 4 2 2 2 3 3 2 3 6 7 6 7 7 8 7 8 7 6 6 6 6 7 6 6 5 5 6 5 5 5 4 5 5 6
10 11 13 13 11 11 13 13 10 11 11 11 10 10 10 11 11 11 8 7 8 10 10 8 9 7 7 7 7 7 8 8 8 8 8 8 7 6 7 8 7 7 8 5 4 5 5 4 5 3 3 6 5 5 4 4 1 5 5 4 4 5 8 7 8 8 8 7 7 7 6 7 8 7 6 5 7 7 6 6 5 6 5 5 5
13 14 13 12 11 10 12 11 11 11 11 11 11 12 9 9 9 7 8 5 5 7 7 7 6 7 8 8 7 7 8 8 8 8 8 7 8 7 7 6 7 7 6 5 6 6 6 7 7 7 4 1 2 3 6 7 5 2 1 2 4 5 1 2 5 8 9 8 6 6 7 8 10 7 5 5 7 7 6 6 7 6 7 7 6
10 10 12 14 12 12 11 12 12 11 11 11 12 11 10 8 7 6 6 6 5 5 6 6 7 8 9 8 7 7 7 8 8 8 7 7 8 8 7 6 7 7 8 7 6 7 6 5 6 7 5 4 3 6 5 6 5 6 2 5 2 1 9 5 4 4 6 8 6 9 6 8 9 6 5 8 9 7 7 6 7 7 8 8 7
13 14 14 13 11 14 14 14 13 13 12 11 11 9 7 5 5 3 4 3 1 6 6 7 9 10 8 9 10 7 7 7 7 8 8 8 7 7 7 7 7 7 6 7 8 8 9 8 8 6 7 7 6 4 4 6 7 7 5 2 1 1 6 4 2 6 1 2 6 7 6 8 9 7 6 8 7 7 7 7 8 7 8 8 8
14 14 13 14 13 13 13 12 11 11 12 12 12 10 10 10 9 9 9 8 9 8 11 13 11 11 13 8 8 9 8 8 8 8 8 7 8 8 7 7 7 7 7 7 7 6 6 7 8 8 8 7 6 5 5 4 7 8 9 7 5 7 3 2 2 5 1 5 2 3 6 7 8 6 6 7 8 8 6 8 7 8 8 8 8
15 11 11 12 13 12 13 13 12 11 11 11 12 10 11 10 13 14 13 13 14 12 9 5 8 7 5 7 8 8 9 9 8 7 8 8 7 7 8 8 8 8 8 7 7 8 7 8 7 7 7 7 6 7 7 5 2 6 6 9 9 6 3 4 7 3 8 1 2 4 5 6 7 6 7 8 9 8 7 7 8 8 8 7 7
13 12 12 11 13 12 12 13 11 11 10 10 12 13 13 12 12 12 12 12 13 12 10 7 5 6 7 7 7 7 8 8 8 7 7 7 8 8 8 8 8 8 8 8 8 7 6 5 7 9 8 7 8 9 7 6 7 4 7 9 9 9 6 5 7 9 9 10 8 3 4 5 5 6 6 8 9 9 9 8 9 8 8 8 8
11 13 13 13 12 11 11 10 11 10 10 12 12 12 12 13 13 12 12 11 10 8 5 5 6 7 8 7 8 8 8 9 9 9 8 7 7 8 8 8 8 8 8 7 7 7 8 7 7 7 7 7 8 8 7 7 7 8 5 6 7 8 7 7 5 3 7 7 12 8 8 1 3 7 6 8 9 8 9 9 8 8 7 8 8
10 9 8 8 9 8 10 11 12 10 10 12 12 13 12 11 12 12 13 10 6 5 5 7 6 6 8 8 8 8 8 8 8 8 9 8 6 7 7 8 8 8 8 8 8 8 8 8 9 9 9 8 6 8 9 8 8 6 7 5 5 3 4 4 5 4 5 7 13 8 6 6 8 6 5 7 10 9 9 8 8 7 8 9 8
7 8 8 9 8 10 11 12 13 10 10 12 13 14 12 11 12 12 13 11 9 8 7 7 7 6 9 8 9 8 7 8 7 8 8 7 8 8 9 9 8 8 8 8 9 8 8 8 8 7 7 9 7 8 8 7 6 6 6 7 8 8 8 8 7 6 8 7 5 9 8 8 10 13 6 7 8 9 8 7 8 8 9 9 9
Wind_Direction
163 135 136 116 111 106 105 101 99 101 98 104 106 85 83 88 86 85 88 90 89 85 81 80 78 81 80 76 80 84 83 82 82 81 80 79 77 75 74 72 69 71 72 71 73 73 72 72 72 72 72 71 72 73 73 73 73 73 74 75 73 71 69 67 66 64 64 64 65 67 67 72 73 70 77 79 76 73 70 67 65 61 65 66 67
154 140 132 118 113 110 112 114 113 111 105 99 89 86 90 92 90 89 91 90 85 82 86 90 84 78 86 86 82 81 81 80 82 82 80 79 78 75 74 76 78 76 75 73 73 73 73 72 71 69 71 73 74 74 74 74 74 75 77 76 76 74 71 69 66 64 63 64 64 68 69 72 74 70 73 75 74 72 68 68 67 64 65 66 63
130 132 138 118 117 116 114 109 103 104 109 111 100 90 92 97 96 94 93 92 90 88 90 91 87 90 80 76 75 79 83 82 84 83 83 80 79 81 79 78 76 75 78 79 77 76 76 76 75 73 74 78 78 77 76 74 75 79 79 78 76 75 73 72 68 65 64 62 59 55 55 63 73 74 75 74 74 72 69 68 68 68 67 67 65
131 137 125 118 116 116 116 113 110 110 116 117 107 97 93 100 99 98 99 95 92 93 92 88 89 83 77 77 78 78 79 85 88 91 89 85 81 79 83 85 85 84 82 79 78 79 79 79 79 78 78 80 80 76 73 77 81 82 80 78 77 78 77 73 70 67 63 61 60 58 54 51 63 74 73 73 73 71 68 67 68 69 68 66 64
127 129 121 113 114 116 116 116 118 118 111 88 84 87 99 103 98 102 101 96 95 98 96 95 90 88 84 85 85 84 86 87 88 88 87 85 84 84 81 78 80 83 84 82 80 82 83 83 83 83 82 80 75 73 75 79 82 81 81 80 81 81 77 74 71 69 66 63 60 61 56 59 58 65 71 72 70 67 64 59 61 67 67 66 66
132 129 120 122 123 124 120 118 117 114 109 104 99 98 104 107 103 100 103 98 101 97 91 90 90 90 91 89 88 88 87 86 84 83 83 83 83 83 81 82 82 82 81 84 84 83 83 84 85 84 83 82 78 79 80 81 82 83 82 83 81 78 76 75 72 70 65 63 63 59 58 58 57 64 67 69 70 68 66 63 67 66 65 63 63
132 129 126 129 131 132 130 123 119 117 118 114 116 106 103 106 109 101 105 103 100 99 98 97 95 93 93 93 91 87 82 82 85 82 81 80 78 80 82 80 80 82 85 87 87 86 86 87 87 88 87 81 81 79 76 80 82 83 84 83 80 76 74 75 74 72 68 64 56 56 57 56 56 60 68 70 69 69 68 66 66 66 64 64 65
129 127 132 135 134 135 122 121 119 119 116 111 109 106 110 110 110 106 102 106 105 106 101 94 92 91 91 91 86 85 84 84 82 83 82 81 81 79 81 82 82 83 84 85 88 90 90 90 93 91 85 83 82 79 79 81 84 86 86 85 82 80 79 78 76 74 71 68 64 62 63 60 61 62 69 70 68 66 66 69 70 70 70 72 70
130 131 133 135 136 132 127 125 124 123 119 113 112 107 98 102 111 115 103 93 98 97 97 97 96 99 94 85 86 86 86 84 83 85 88 88 86 86 84 84 86 88 89 89 87 88 91 92 91 89 84 81 80 78 76 80 85 87 88 88 88 86 83 82 79 75 72 74 72 70 69 67 65 68 73 74 75 75 73 65 61 67 71 69 66
131 129 134 135 137 134 134 130 124 122 117 113 112 110 105 103 112 118 104 86 105 104 99 97 97 96 95 93 90 87 85 83 83 84 83 82 84 84 84 85 80 82 85 87 88 89 90 92 92 87 84 80 76 72 72 78 81 84 84 84 83 81 79 76 73 65 67 62 64 72 75 77 75 78 79 79 77 75 73 74 75 69 63 65 70
128 132 135 135 142 141 134 129 125 123 122 120 113 107 106 102 110 117 103 95 106 103 98 99 98 94 90 92 94 90 87 88 88 87 85 85 84 86 88 87 88 88 88 87 87 86 89 90 91 87 84 76 70 69 72 78 83 83 85 86 84 81 78 74 68 70 68 65 62 57 77 80 80 78 80 79 78 77 76 76 75 74 72 71 71
129 132 134 140 146 140 131 130 130 128 125 119 113 110 111 107 105 112 107 101 104 109 105 101 100 100 101 96 92 94 92 91 91 90 89 89 90 90 87 85 84 83 82 84 85 88 88 89 89 86 77 67 66 60 59 61 67 77 85 88 86 83 78 73 70 70 70 66 62 62 58 61 71 79 80 79 78 76 76 75 74 72 74 74 73
129 133 136 141 139 138 132 133 131 130 126 120 114 109 109 112 107 114 118 109 99 111 109 105 102 98 94 98 97 96 99 93 92 92 94 94 90 90 90 89 87 86 85 84 85 88 90 90 88 83 73 67 62 59 59 62 65 65 77 84 86 84 83 80 76 74 73 73 70 70 74 72 77 77 73 73 73 72 71 69 70 69 68 69 72
131 135 136 140 141 140 134 131 132 131 128 123 116 115 118 117 109 113 119 105 101 106 108 108 105 103 98 93 90 97 102 99 96 94 95 92 92 91 91 91 91 90 88 86 87 90 93 90 87 84 76 68 63 63 62 59 60 71 85 88 89 89 87 83 79 77 76 77 75 64 58 74 73 73 72 73 73 73 71 70 72 73 71 72 76
137 140 138 139 142 141 136 134 131 131 129 124 119 116 120 120 118 116 121 119 109 107 108 109 109 106 103 95 79 84 96 102 97 90 89 89 89 89 89 89 87 86 88 91 91 93 92 89 86 87 78 70 67 66 65 65 67 67 77 85 86 88 85 84 75 67 60 50 41 48 57 55 74 75 73 71 70 70 71 72 72 73 77 77 73
138 140 136 140 142 142 138 137 133 130 126 124 120 119 118 111 116 122 123 124 117 112 111 110 110 106 95 89 88 92 99 97 94 89 82 86 91 94 93 89 91 92 91 91 92 93 90 88 90 90 83 75 72 70 69 70 72 75 82 86 89 89 89 86 78 70 67 66 62 61 58 94 89 82 79 81 84 81 76 70 74 76 70 71 72
135 137 139 143 145 145 143 142 138 129 126 124 122 123 118 113 98 115 128 124 121 117 118 113 102 95 92 90 89 91 101 97 93 89 84 86 86 84 96 99 96 95 95 94 95 96 94 90 90 90 85 79 79 74 71 70 72 77 83 87 86 86 88 89 83 82 81 77 72 72 77 79 88 79 83 87 75 72 71 74 77 73 75 77 80
138 141 144 147 149 148 144 140 137 130 128 124 125 122 119 111 106 99 111 122 123 117 109 101 99 95 90 89 93 97 99 100 96 93 93 89 84 80 86 98 97 97 98 98 101 99 96 93 92 90 84 80 78 73 66 61 62 62 62 62 68 85 90 90 90 87 83 72 60 39 90 75 72 80 75 78 76 67 73 78 72 75 76 76 79
142 145 146 149 154 149 146 143 142 134 133 130 130 121 114 114 113 109 108 117 114 108 108 109 106 103 101 101 99 98 97 97 98 99 99 94 87 79 81 84 98 97 97 101 101 101 98 98 97 93 88 83 78 67 62 54 47 44 44 48 74 83 74 80 89 89 83 67 38 39 43 85 98 81 77 81 83 78 76 69 80 82 79 75 77
147 147 153 158 155 154 151 150 146 146 137 133 127 124 119 118 116 113 111 112 114 114 115 114 114 112 111 108 107 103 98 96 96 94 97 94 89 86 84 95 101 100 99 102 102 101 100 96 96 96 92 83 70 58 48 51 42 37 39 49 83 80 79 84 84 75 66 58 45 35 66 51 79 88 80 87 78 71 74 79 81 81 83 86 82
148 154 158 164 162 157 157 158 157 155 146 136 127 120 122 117 113 114 115 116 117 117 116 116 116 122 119 120 115 111 111 104 95 99 92 96 94 87 88 80 79 92 101 103 103 98 94 96 97 98 96 83 58 48 38 33 32 33 38 42 86 90 100 101 93 85 69 72 79 82 74 77 97 87 92 88 82 72 72 86 90 88 81 82 82
155 160 168 165 161 162 164 164 161 164 154 144 137 129 130 119 122 121 118 119 118 119 122 130 135 143 143 134 129 128 115 109 109 105 106 101 98 98 95 98 90 86 90 93 93 92 90 89 93 105 103 89 65 44 27 13 16 18 27 40 86 98 101 109 107 99 96 83 50 110 124 145 122 99 89 95 84 90 91 82 80 88 90 87 93
168 167 172 165 163 163 165 168 166 166 154 148 143 144 138 132 134 132 132 133 138 134 139 144 156 163 165 144 99 123 121 120 120 118 112 109 109 105 98 96 96 96 98 96 92 87 84 80 80 88 78 51 42 19 10 18 357 17 15 47 121 112 111 110 105 111 117 116 78 139 78 79 83 90 87 99 101 97 80 90 94 93 96 105 95
177 174 168 167 159 163 170 171 168 165 154 151 150 151 149 147 145 144 143 149 152 153 155 164 179 179 177 135 118 127 116 113 116 114 110 105 102 102 105 103 103 101 98 91 92 97 91 74 72 47 35 5 14 345 325 323 334 65 16 49 124 127 120 119 125 131 125 100 75 77 117 102 100 119 111 105 104 95 89 94 96 93 111 99 103
176 171 169 169 168 167 170 169 166 161 153 153 157 162 157 155 156 156 157 159 168 170 172 178 194 182 165 149 142 134 125 130 131 122 120 122 121 122 120 121 120 120 115 117 123 110 108 112 144 51 327 282 319 297 279 293 308 340 46 345 144 119 124 125 130 136 139 124 121 134 290 141 152 118 110 116 108 116 133 124 102 109 112 114 110
168 172 187 172 171 172 168 165 164 162 159 160 166 165 158 164 166 171 164 172 174 184 181 187 201 167 167 140 152 127 134 137 139 138 141 143 142 153 150 147 143 152 131 128 138 134 142 139 149 200 251 257 249 225 227 198 264 300 66 18 76 44 127 136 136 145 153 140 138 199 249 322 215 115 140 151 125 125 107 79 109 109 106 73 116
176 181 180 184 173 170 166 157 166 162 162 166 162 164 171 171 169 174 170 181 180 184 183 184 194 153 154 149 137 138 144 151 150 152 157 161 164 165 162 168 170 168 166 139 170 162 156 152 162 198 233 262 291 271 202 220 286 285 40 101 77 74 82 143 144 152 159 136 155 174 232 309 313 130 153 147 181 153 178 125 162 145 145 146 205
170 181 181 181 179 175 160 159 165 164 166 170 166 173 177 172 172 175 181 182 177 186 176 176 182 147 154 170 144 147 155 161 168 163 169 175 180 172 170 178 189 193 169 160 167 175 161 167 178 219 236 244 188 171 102 93 63 111 123 92 76 83 57 144 152 150 154 145 156 184 208 301 251 152 203 185 144 144 138 176 151 188 135 229 79
180 181 182 180 184 177 164 161 164 167 168 171 175 177 176 171 170 175 185 183 183 177 172 171 175 155 164 171 157 145 159 171 178 177 172 187 194 166 174 187 200 190 148 167 166 173 172 188 204 205 213 203 168 106 79 28 73 47 120 96 71 66 55 31 139 162 159 160 169 183 183 213 256 188 224 227 180 216 172 199 174 217 203 172 182
187 180 180 184 183 177 176 170 165 170 169 169 179 172 175 165 174 179 177 178 188 175 161 169 176 159 172 173 173 155 170 175 187 184 164 191 193 171 176 186 195 182 143 158 184 168 177 185 210 190 179 182 147 215 127 154 54 69 57 107 53 56 79 70 94 183 181 169 184 183 188 204 238 245 280 285 235 201 181 196 203 190 220 190 279
181 186 184 183 183 178 181 175 169 169 164 169 172 173 173 169 175 175 170 176 183 177 158 163 171 173 172 173 168 178 165 179 177 183 181 170 179 165 166 175 172 164 159 163 176 171 189 190 191 188 189 189 226 234 176 160 114 93 89 96 82 59 34 31 31 84 183 211 196 190 192 188 193 235 274 279 248 188 197 203 226 212 218 215 215
184 186 184 177 179 182 178 178 175 171 171 167 171 168 174 173 174 168 180 183 172 178 169 162 168 178 175 172 180 177 167 178 173 178 178 171 173 172 164 162 181 178 168 158 172 180 186 201 200 188 195 179 206 212 195 153 147 146 127 107 64 63 32 24 19 344 17 230 217 213 197 208 198 204 214 232 260 255 206 220 232 209 231 201 209
187 179 179 172 178 181 176 179 176 175 178 177 171 172 169 170 173 175 181 183 179 178 177 185 177 174 180 178 188 181 175 172 189 174 177 173 173 175 178 184 192 181 178 165 170 180 180 188 205 174 145 157 134 183 124 101 144 171 136 138 109 86 11 41 354 343 343 339 298 238 214 217 223 218 227 228 235 244 232 229 238 226 216 224 226
178 180 176 180 176 179 177 178 176 178 182 179 172 173 172 172 175 176 178 183 188 181 186 190 195 184 178 188 187 190 178 178 179 188 169 171 176 181 189 199 198 189 175 162 167 176 165 157 177 146 138 134 160 188 147 123 154 149 148 149 113 141 65 344 338 303 314 337 333 320 277 259 246 235 228 239 239 241 234 250 235 222 210 234 238
170 181 185 184 174 179 180 182 177 181 176 180 179 176 170 172 176 179 182 183 191 192 188 191 195 196 174 187 190 192 193 176 182 181 183 170 176 188 194 198 189 185 176 178 164 180 164 171 160 164 171 154 153 184 181 176 169 180 186 145 164 180 125 240 274 298 316 310 318 304 308 314 281 251 245 236 242 242 245 240 240 242 249 233 233
176 184 187 183 183 180 183 182 182 180 188 183 181 175 170 174 177 181 182 188 191 199 193 192 193 196 187 184 193 192 196 189 176 182 181 182 179 187 196 188 186 175 177 173 162 171 175 161 187 163 175 220 182 214 216 190 187 193 186 158 166 158 224 269 276 292 296 311 283 281 283 269 286 296 285 263 259 258 256 254 252 252 270 250 235
182 175 183 186 187 185 183 183 186 185 187 186 179 180 170 174 180 182 185 188 195 200 199 192 195 196 194 191 192 190 193 194 183 181 180 187 187 187 188 186 179 173 170 173 176 176 166 177 193 193 177 198 204 208 211 205 194 187 178 176 185 198 226 237 256 257 296 279 275 277 278 270 269 261 270 297 297 293 271 263 253 250 252 268 237
193 184 182 184 189 185 187 186 187 186 186 188 186 181 184 169 181 183 185 190 197 199 201 189 197 198 193 196 192 190 194 194 189 182 185 188 187 186 186 185 175 172 169 171 182 176 181 175 191 204 186 183 203 206 210 191 174 172 190 203 221 225 232 244 251 265 258 257 247 246 247 271 280 274 266 247 273 290 297 284 271 259 248 246 257
193 193 184 186 183 186 185 186 182 184 186 187 188 184 182 183 174 183 192 196 196 199 196 198 194 193 195 193 191 192 195 194 192 184 186 188 188 186 182 188 173 170 167 170 178 185 183 187 185 198 194 192 195 204 195 172 170 178 203 225 233 237 235 241 245 245 242 240 250 250 254 249 248 256 259 261 251 260 280 286 289 269 256 252 253
190 190 186 182 184 183 186 185 185 179 178 182 181 185 185 189 190 185 197 201 197 195 200 199 188 194 194 185 190 192 194 195 191 187 187 188 189 188 188 181 177 166 170 174 188 191 192 183 193 176 172 131 51 112 129 139 96 180 248 270 248 255 253 246 247 242 245 241 243 248 249 254 244 252 249 252 252 254 255 268 274 275 267 262 260
189 187 185 185 184 184 181 190 190 177 172 179 185 186 191 195 200 202 203 194 196 193 199 200 198 197 193 192 187 191 191 192 194 186 190 187 193 189 181 184 179 179 180 194 193 192 190 185 173 171 169 176 198 118 119 122 126 288 251 263 269 232 237 234 237 238 237 239 238 238 242 249 249 248 243 243 250 253 251 257 263 270 276 279 270
199 189 191 193 186 182 185 190 185 189 185 185 186 191 195 197 195 202 190 184 188 194 201 203 203 199 200 200 197 193 194 193 191 190 191 189 189 184 185 185 181 188 194 186 167 171 171 175 158 167 213 186 207 177 178 130 229 219 261 302 290 267 228 232 239 242 242 243 234 234 236 237 246 241 242 242 250 245 242 242 247 257 262 266 266
192 193 195 192 190 184 191 187 188 189 192 187 185 196 196 197 195 197 183 178 203 198 197 195 191 199 205 206 200 196 193 196 191 189 189 190 188 181 190 184 186 176 167 170 176 177 183 183 180 181 198 269 201 190 189 196 206 142 129 17 292 328 328 297 256 247 241 239 229 234 232 238 243 238 231 242 246 244 241 237 240 244 251 254 258
192 198 197 195 194 192 191 190 189 189 190 190 191 196 194 192 196 172 179 167 176 193 190 188 199 200 209 203 203 192 187 190 189 190 192 190 186 188 184 184 187 181 180 178 182 190 180 185 191 202 170 186 204 227 203 205 181 133 263 208 232 120 304 287 292 270 217 235 220 233 227 238 247 241 222 235 241 241 244 237 238 238 238 243 245
197 197 195 194 195 196 194 190 189 193 193 189 189 177 161 164 167 140 143 173 99 155 190 211 204 205 205 208 207 189 190 192 191 194 195 195 192 193 188 189 185 188 186 190 189 195 195 193 188 185 193 203 224 215 220 203 214 217 190 109 330 284 231 280 359 272 142 240 233 229 228 238 245 237 222 243 244 243 241 242 240 239 241 239 240
202 201 195 195 193 195 192 189 192 195 197 195 189 178 179 176 173 178 187 194 206 194 198 203 198 199 207 202 205 202 200 201 199 200 201 199 199 198 194 188 191 190 196 201 200 191 193 190 193 194 205 209 217 216 217 210 219 221 234 238 204 251 276 234 22 287 335 224 235 203 228 236 245 243 231 246 245 244 232 244 240 242 241 241 241
207 196 199 200 198 195 194 189 191 195 195 191 186 183 188 191 193 196 198 199 204 214 214 193 196 204 188 196 201 196 202 202 205 202 201 200 201 199 197 195 194 194 197 201 203 201 196 198 190 199 202 200 203 235 224 202 209 250 242 245 256 249 198 261 262 333 291 293 262 224 238 228 242 233 233 240 244 246 243 234 241 238 242 239 240
196 192 201 200 199 196 192 195 193 192 193 186 185 189 192 195 196 202 203 207 209 213 201 193 172 172 190 197 192 199 203 207 206 208 206 197 198 200 198 195 194 196 192 203 206 202 195 198 196 200 201 195 197 216 231 192 194 221 200 233 243 253 250 237 245 245 272 287 274 259 216 241 247 242 228 245 246 240 247 237 236 238 239 239 235
194 196 197 197 198 197 196 194 195 189 192 188 187 192 194 193 196 197 203 213 210 208 186 175 170 176 192 195 196 195 198 205 206 202 205 201 194 203 202 201 197 198 193 206 207 195 195 195 201 206 204 205 202 211 220 222 203 229 165 229 229 238 240 241 245 210 242 268 273 254 268 249 276 257 231 236 249 245 240 243 237 236 238 241 233
199 198 196 191 194 189 193 193 200 192 190 191 193 195 194 187 192 195 198 200 193 190 173 189 190 180 192 193 195 195 196 199 206 206 203 205 201 202 208 209 208 203 194 203 200 201 200 204 206 206 206 208 205 207 218 224 218 222 206 191 203 224 245 258 233 222 250 221 262 262 273 286 282 259 203 225 243 243 242 239 242 237 238 239 236
197 188 189 189 186 189 192 196 201 193 190 193 193 198 196 195 198 196 196 193 187 180 181 197 193 187 198 194 194 198 190 198 195 207 209 202 204 204 213 214 208 205 198 198 200 200 203 207 206 202 204 209 211 218 227 235 228 220 211 201 218 210 224 227 227 206 220 241 258 259 258 234 245 273 244 218 234 239 235 230 234 236 235 237 238